Location: Unspecified
(0.0000°N, 0.0000°E)
Time: 16:45:37
(UTC+00:00)

Altair - Pass Details

Date: 06 October 2023
Orbit: 1501 x 1682 km, 47.2° (Epoch: 06 December)

Event Time Altitude Azimuth Distance (km) Brightness Sun altitude
Rises 08:49:20 0° 328° (NNW) 4,922 9.9 45.0°
Reaches altitude 10° 08:52:34 10° 331° (NNW) 3,934 9.5 45.8°
Maximum altitude 09:02:33 63° 50° (NE) 1,823 9.2 48.3°
Drops below altitude 10° 09:12:18 10° 129° (SE) 3,859 10.3 50.7°
Sets 09:15:26 0° 132° (SE) 4,824 10.6 51.5°
